Theta_e
275 274 273 273 272 272 271 271 271 270 270 270 270 270 269 269 269 269 268 268 268 268
274 273 272 272 271 271 270 270 270 269 269 269 269 268 268 268 267 267 268 268 268 268
272 272 271 271 270 269 269 268 268 268 268 267 267 267 268 266 267 267 268 268 268 268
271 271 270 269 269 268 268 267 267 267 267 266 266 267 266 266 267 267 267 268 268 269
270 269 269 268 267 268 266 267 266 266 266 266 266 266 265 265 266 266 267 268 269 269
269 268 267 267 267 266 266 265 265 265 265 265 265 265 265 266 267 267 268 269 269 270
268 267 267 266 266 265 265 264 264 264 264 265 265 265 265 267 267 268 270 270 271 272
266 266 265 265 264 264 264 264 264 264 264 264 264 265 267 269 269 269 269 270 272 273
263 263 263 263 263 263 263 263 263 263 263 263 264 268 271 272 269 269 270 269 270 271
259 260 260 261 261 261 261 261 261 262 262 262 263 268 271 272 270 270 269 269 270 270
257 258 259 259 259 259 260 260 261 261 262 263 263 269 271 272 270 269 269 269 268 268
256 258 258 258 258 259 260 261 260 262 262 261 261 268 270 271 269 268 268 269 270 269
259 258 258 258 259 261 261 261 262 262 262 262 262 267 270 271 269 268 267 269 270 272
260 259 259 260 261 260 260 261 260 261 262 263 263 265 271 272 270 268 269 268 268 268
Wind_Speed
9 6 6 8 8 7 8 8 11 11 12 12 12 12 12 10 9 12 11 15 13 12
7 9 8 10 8 7 9 10 12 12 12 12 12 13 12 9 12 12 11 12 12 11
8 8 8 9 9 11 10 11 11 12 12 12 12 13 13 11 12 12 10 10 13 13
8 9 9 10 9 10 11 11 11 12 13 13 13 12 12 13 14 13 14 14 14 16
9 10 10 9 11 10 11 11 12 11 13 13 13 13 13 14 14 15 15 17 17 18
9 9 10 10 11 11 11 11 11 12 13 13 13 13 13 14 14 16 16 17 17 18
9 10 10 11 12 11 11 11 11 11 12 12 13 14 14 15 16 16 15 17 17 17
9 10 11 12 12 11 10 10 11 13 12 13 11 10 15 15 15 14 16 17 16 16
8 10 11 11 11 11 11 11 11 11 13 14 11 22 25 22 13 15 14 14 17 16
8 10 11 10 11 11 11 11 12 12 12 13 13 24 25 25 13 11 13 14 13 12
7 9 10 10 10 11 9 11 11 12 12 12 12 24 25 25 12 13 13 13 12 10
6 10 10 10 10 11 10 11 10 11 12 12 13 24 24 21 12 12 11 10 12 9
9 9 10 11 11 10 10 11 10 13 12 13 14 21 25 21 8 9 9 11 10 17
10 11 10 10 10 10 10 10 9 12 12 13 12 13 25 23 10 9 8 9 8 9
Wind_Direction
356 351 337 332 326 327 327 327 322 335 324 321 322 322 317 310 309 314 314 303 298 294
350 342 332 329 326 330 322 321 332 321 323 321 323 322 317 309 312 307 302 293 293 292
336 335 330 327 328 326 319 323 318 321 321 321 320 319 319 313 302 301 296 298 298 294
334 333 327 325 325 316 319 317 317 317 320 319 318 319 314 307 302 303 296 295 296 293
330 326 322 318 317 316 313 314 314 316 317 315 313 315 309 309 298 294 301 299 297 290
325 322 316 316 312 314 311 311 310 315 310 309 312 308 311 292 296 297 295 294 293 295
323 321 317 314 314 311 310 308 308 309 303 308 305 309 298 300 294 293 295 298 299 305
322 320 317 315 313 309 306 306 303 305 303 305 304 302 298 298 293 302 300 301 309 311
315 316 314 313 312 309 307 305 304 302 302 305 303 308 308 309 308 300 301 310 310 316
309 312 313 310 308 307 309 308 302 303 303 300 302 309 314 314 306 313 307 304 310 308
298 305 308 310 306 306 308 305 305 307 300 304 304 318 317 317 321 306 306 307 307 304
302 308 314 310 307 302 303 306 308 305 308 305 301 314 320 321 312 308 305 304 306 306
313 306 307 304 306 306 311 305 309 306 304 303 298 308 317 325 311 319 307 303 311 325
319 311 304 307 316 311 310 307 304 301 303 303 297 300 321 326 333 311 306 314 338 333